Home > Weather > Bethlehem > Past weeks

Flag for Palestinian Territories Past Weather in Bethlehem, West Bank, Palestinian Territories — Yesterday and Last 2 Weeks

Now
82 °F

Scattered clouds.


Feels Like: 85 °F
Forecast: 65 / 81 °F
Wind: 10 mph from West

Location: Ben Gurion International Airport

Current Time: Jul 23, 2016 at 8:14:57 PM

Latest Report: Jul 23, 2016 at 7:20 PM


Visibility: N/A

Pressure: 29.77 "Hg (27.33 "Hg at 753m altitude)

Humidity: 58%

Dew Point: 66 °F

Location of BethlehemLocation

Past Weather in Bethlehem — Graph

°F

Bethlehem Temperature Yesterday

Maximum temperature yesterday: 90 °F (at 1:20 PM)
Minimum temperature yesterday: 73 °F (at 5:20 AM)
Average temperature yesterday: 82 °F

High & Low Weather Summary for the Past Weeks

 TemperatureHumidityPressure
High91 °F (Jul 13, 10:20 AM)89% (Jul 11, 3:20 AM)29.89 "Hg (Jul 11, 3:20 AM)
Low73 °F (Jul 9, 5:20 AM)33% (Jul 21, 4:50 PM)29.65 "Hg (Jul 19, 11:20 AM)
Average82 °F64%29.77 "Hg
* Reported Jul 8 6:20 PM — Jul 23 6:50 PM, Bethlehem, Weather by CustomWeather, © 2016

Note: Actual official high and low records may vary slightly from our data, if they occured in-between our weather recording intervals... More about our weather records

Advertising

Bethlehem Weather History for the Previous 24 Hours

Scroll right to see more
 ConditionsComfort  
Time TempWeatherWind HumidityBarometerVisibility
6:50 PM
Sat, Jul 23
82 °FPassing clouds.10 mph58%29.77 "HgN/A
6:20 PM84 °FPassing clouds.10 mph55%29.77 "HgN/A
5:50 PM84 °FPassing clouds.12 mph55%29.77 "HgN/A
5:20 PM84 °FPassing clouds.13 mph55%29.77 "HgN/A
4:50 PM86 °FPassing clouds.13 mph52%29.77 "HgN/A
4:20 PM86 °FPassing clouds.9 mph52%29.77 "HgN/A
3:50 PM86 °FPassing clouds.13 mph49%29.80 "HgN/A
3:20 PM86 °FPassing clouds.14 mph52%29.80 "HgN/A
2:50 PM86 °FPassing clouds.13 mph52%29.80 "HgN/A
2:20 PM88 °FPassing clouds.12 mph49%29.80 "HgN/A
1:50 PM86 °FPassing clouds.13 mph52%29.80 "HgN/A
1:20 PM86 °FScattered clouds.14 mph52%29.80 "HgN/A
12:50 PM88 °FScattered clouds.9 mph49%29.80 "HgN/A
12:20 PM86 °FScattered clouds.12 mph52%29.80 "HgN/A
11:50 AM86 °FScattered clouds.9 mph52%29.83 "HgN/A
11:20 AM86 °FScattered clouds.8 mph52%29.83 "HgN/A
10:50 AM86 °FScattered clouds.6 mph52%29.83 "HgN/A
10:20 AM84 °FScattered clouds.8 mph51%29.83 "HgN/A
9:50 AM84 °FScattered clouds.7 mph55%29.83 "HgN/A
9:20 AM82 °FScattered clouds.6 mph58%29.83 "HgN/A
8:50 AM82 °FScattered clouds.6 mph62%29.83 "HgN/A
8:20 AM81 °FScattered clouds.5 mph62%29.83 "HgN/A
7:50 AM79 °FScattered clouds.3 mph65%29.83 "HgN/A
7:20 AM77 °FScattered clouds.5 mph65%29.83 "HgN/A
6:50 AM75 °FPassing clouds.5 mph69%29.83 "HgN/A
6:20 AM73 °FPassing clouds.3 mph74%29.83 "HgN/A
5:50 AM73 °FPassing clouds.3 mph74%29.83 "HgN/A
5:20 AM75 °FClear.7 mph69%29.83 "Hg10 mi
4:50 AM75 °FClear.7 mph69%29.83 "Hg10 mi
4:20 AM75 °FClear.6 mph69%29.83 "Hg10 mi
3:50 AM75 °FClear.5 mph69%29.83 "Hg10 mi
3:20 AM75 °FClear.1 mph74%29.86 "Hg10 mi
2:50 AM77 °FClear.2 mph69%29.86 "Hg10 mi
2:20 AM77 °FClear.5 mph69%29.86 "Hg10 mi
1:50 AM77 °FPassing clouds.5 mph69%29.86 "HgN/A
1:20 AM77 °FPassing clouds.3 mph69%29.86 "HgN/A
12:50 AM79 °FPassing clouds.5 mph65%29.86 "HgN/A
12:20 AM81 °FPassing clouds.2 mph62%29.89 "HgN/A
11:50 PM
Fri, Jul 22
79 °FPassing clouds.2 mph65%29.89 "HgN/A
11:20 PM79 °FPassing clouds.3 mph65%29.89 "HgN/A
10:50 PM81 °FPassing clouds.5 mph62%29.89 "HgN/A
10:20 PM81 °FPassing clouds.3 mph58%29.89 "HgN/A
9:50 PM81 °FPassing clouds.5 mph62%29.89 "HgN/A
9:20 PM81 °FPassing clouds.5 mph62%29.89 "HgN/A
8:50 PM81 °FPassing clouds.9 mph62%29.89 "HgN/A
8:20 PM82 °FPassing clouds.9 mph58%29.89 "HgN/A
Weather by CustomWeather, © 2016

See weather overviewHow to use our weather pages